Tracking 35331 objects as of 14-Sep-2026
HD Live streaming from Space Station
objects crossing your sky now

MOLNIYA 3-41

Track MOLNIYA 3-41 now!
MOLNIYA 3-41 is classified as:


NORAD ID: 21706
Int'l Code: 1991-065A
Launch date: September 17, 1991
Source: Commonwealth of Independent States (former USSR) (CIS)
Launch site: PLESETSK MISSILE AND SPACE COMPLEX (PKMTR)
Your satellite tracking list
Your tracking list is empty




NASA's NSSDC Master Catalog

Two Line Element Set (TLE):
1 21706U 91065A   26256.95134298  .00000796  00000-0  50385-3 0  9995
2 21706  62.6098 305.2239 7417988 254.1688  19.6056  2.04504481258539
Source of the keplerian elements: AFSPC